This is the latest recevied weather packets stored in our database for station/object N6RDS-8. If no packets are shown the sender has not sent any weather packets the latest 10 day(s).
| Time | Temp. | Humidity | Pressure | Rain* | Wind** | Luminosity | Snow |
|---|---|---|---|---|---|---|---|
| 1777396319 | 22.78° C | 28% | 1021.1 hPa | 0 mm | - | 644 W/m² | - |
| 1777396016 | 22.22° C | 29% | 1021.4 hPa | 0 mm | - | 642 W/m² | - |
| 1777395715 | 22.78° C | 28% | 1021 hPa | 0 mm | - | 456 W/m² | - |
| 1777395411 | 21.67° C | 31% | 1021.5 hPa | 0 mm | - | 593 W/m² | - |
| 1777395110 | 21.67° C | 31% | 1021.6 hPa | 0 mm | - | 574 W/m² | - |
| 1777394806 | 21.67° C | 31% | 1021.6 hPa | 0 mm | - | 501 W/m² | - |
| 1777394502 | 21.67° C | 33% | 1021.6 hPa | 0 mm | - | 574 W/m² | - |
| 1777394199 | 20.56° C | 32% | 1021.5 hPa | 0 mm | - | 538 W/m² | - |
| 1777393894 | 21.67° C | 31% | 1021.5 hPa | 0 mm | - | 522 W/m² | - |
| 1777393593 | 21.11° C | 32% | 1021.6 hPa | 0 mm | - | 509 W/m² | - |
| 1777393290 | 20° C | 32% | 1021.4 hPa | 0 mm | - | 498 W/m² | - |
| 1777392987 | 18.89° C | 34% | 1021.4 hPa | 0 mm | - | 488 W/m² | - |
| 1777392687 | 19.44° C | 33% | 1021.5 hPa | 0 mm | - | 512 W/m² | - |
| 1777392384 | 18.33° C | 34% | 1021.5 hPa | 0 mm | - | 425 W/m² | - |
| 1777392080 | 18.33° C | 34% | 1021.7 hPa | 0 mm | - | 222 W/m² | - |
| 1777391774 | 18.89° C | 34% | 1021.4 hPa | 0 mm | - | 464 W/m² | - |
| 1777391471 | 18.33° C | 34% | 1021.4 hPa | 0 mm | - | 431 W/m² | - |
| 1777391167 | 18.89° C | 34% | 1021.1 hPa | 0 mm | - | 405 W/m² | - |
| 1777390863 | 17.78° C | 34% | 1021.5 hPa | 0 mm | - | 388 W/m² | - |
| 1777390561 | 17.22° C | 35% | 1021.5 hPa | 0 mm | - | 373 W/m² | - |
| 1777390257 | 17.78° C | 35% | 1021.4 hPa | 0 mm | - | 247 W/m² | - |
| 1777389953 | 17.78° C | 34% | 1021.5 hPa | 0 mm | - | 364 W/m² | - |
| 1777389650 | 17.22° C | 36% | 1021.7 hPa | 0 mm | - | 299 W/m² | - |
| 1777389346 | 16.67° C | 37% | 1021.7 hPa | 0 mm | - | 300 W/m² | - |
| 1777389044 | 16.67° C | 36% | 1021.8 hPa | 0 mm | - | 282 W/m² | - |
* Rain latest hour (hover to see other rain measurements)
** Current wind speed in m/s (hover to see current wind gust speed)